Tracking 23610 objects as of 20-Sep-2021
HD Live streaming from Space Station
objects crossing your sky now

KAITUO 1A

Track KAITUO 1A now!
10-day predictions
KAITUO 1A is classified as:


NORAD ID: 40904
Int'l Code: 2015-049F
Perigee: 515.0 km
Apogee: 533.0 km
Inclination: 97.5 °
Period: 95.0 minutes
Semi major axis: 6894 km
RCS: Unknown
Launch date: September 19, 2015
Source: People's Republic of China (PRC)
Launch site: Taiyaun Space Center, China (TSC)
aabbcc
Your satellite tracking list
Your tracking list is empty




NASA's NSSDC Master Catalog

Two Line Element Set (TLE):
1 40904U 15049F   21263.11257494  .00000855  00000-0  47470-4 0  9997
2 40904  97.4900 263.7095 0013006 224.7414 203.7548 15.16362213331886
Source of the keplerian elements: AFSPC